Regional Weather Roundup
Issued by NWS

Home | Current Version | Previous Version | Text Only | Print | Product List | Glossary On
Versions: 1 2 3 4 5 6 7 8 9 10 11 12 13 14 15 16 17 18 19 20 21 22 23 24 25 26 27 28 29 30 31 32 33 34 35 36 37 38 39 40 41 42 43 44 45 46 47 48 49 50
428
ASUS42 KKEY 120610
RWRKEY

FLORIDA REGIONAL WEATHER ROUNDUP FOR THE FLORIDA KEYS
NATIONAL WEATHER SERVICE KEY WEST FLORIDA
100 AM EST FRI FEB 12 2016

...SOUTH FLORIDA AND THE KEYS...

CITY           SKY/WX    TMP DP  RH WIND       PRES   REMARKS
FORT MYERS     CLEAR     51  48  89 CALM      30.29S
SW REGIONAL AP CLEAR     52  48  86 CALM      30.29F
NAPLES         CLEAR     50  49  96 CALM      30.28F
MIAMI          CLEAR     56  46  69 CALM      30.27F
WEST KENDALL   CLEAR     52  49  89 CALM      30.27F
HOMESTEAD      CLEAR     54  47  78 CALM      30.26F
MARATHON       CLEAR     61  53  75 NE8       30.26F
BOCA CHICA NAS CLEAR     59  52  77 N5        30.26F
KEY WEST INTL  CLEAR     58  54  86 N5        30.26F

...INTERNATIONAL WEATHER...

CITY           SKY/WX    TMP DP  RH WIND       PRES   REMARKS
NASSAU BAHAMAS PTCLDY    66  57  72 CALM      30.28S
CANCUN MEXICO  MOCLDY    64  57  77 N6        30.22F
COZUMEL MEXICO CLOUDY    64  61  88 E5        30.20F

ADJACENT COASTAL WATERS...

STATION/POSITION TIME  SKY/WX   TEMP    WIND        PRES    WAVE
                                AIR SEA DIR/SP/G            HT/PER
                 (UTC)          (F)     (DEG/KT/KT) (MB)    (FT/S)
PULASKI SHOAL LI NOT AVBL
SAND KEY         0550            64      70/ 12/ 15 1024.9F
SOMBRERO KEY     NOT AVBL
LONG KEY         0600            62 63   40/  9/ 10 1025.3F
MOLASSES REEF    0600            68 72  100/ 13/ 15 1024.4F
FOWEY ROCKS      NOT AVBL

$$




USA.gov is the U.S. government's official web portal to all federal, state and local government web resources and services.